Wind_Gust
16 16 16 16 16 16 16 16 16 16 16 16 18 18 18 18 18 18 18 17 16 17 17 18 18 19 21 23 23 24 23 30 32 28 26 30 12 16 11 9 10 7 9 21 21 20 20 21 22 21 24 24 26 27 26 27 25 23 32 30 32 29 32 26 32 30 26 30 26 13 14 15 20 18 16 17 20 19 20 22 18 16 22 39 38 38 40 36
17 17 16 16 16 16 16 16 17 17 16 16 16 16 17 19 20 19 19 18 17 17 17 18 19 20 22 21 24 23 27 29 30 32 37 27 10 11 13 12 7 8 9 21 22 20 21 22 22 23 25 27 20 27 22 32 26 29 28 31 33 29 29 26 28 27 32 28 28 19 13 13 17 13 16 17 18 21 25 25 22 30 31 35 38 36 35 35
17 18 17 17 17 17 17 16 17 17 17 17 17 18 17 17 18 19 20 19 19 19 17 16 18 20 21 22 22 20 29 32 29 33 32 14 13 13 12 11 9 8 18 23 23 22 22 20 21 23 26 26 26 27 26 34 29 29 27 32 32 26 28 28 30 31 28 26 19 15 16 16 17 16 16 17 19 21 24 25 25 28 32 35 35 35 32 31
17 17 17 17 17 17 17 17 17 17 17 17 17 17 18 17 17 17 19 20 20 19 17 16 18 19 21 23 19 29 28 29 32 19 20 12 11 9 9 11 12 17 22 24 22 24 21 23 20 24 26 28 25 27 31 30 32 26 34 33 28 26 32 29 29 28 24 12 18 17 11 13 19 21 19 16 20 23 21 23 22 31 32 33 33 33 31 31
17 17 18 17 18 18 18 18 17 18 18 18 17 18 18 19 18 18 18 20 18 18 19 19 17 19 21 23 20 28 26 26 18 21 18 10 9 9 8 12 15 22 24 22 23 24 24 24 24 23 28 30 27 25 30 28 29 25 30 28 28 26 25 28 32 29 25 16 18 20 18 19 18 21 17 18 21 21 21 21 23 32 34 36 35 31 31 30
20 20 19 19 18 18 18 18 18 18 18 18 18 18 18 18 19 18 18 18 18 18 19 17 16 18 21 21 32 26 23 20 18 20 9 9 6 9 11 13 17 21 23 25 25 22 23 23 26 27 31 28 27 32 26 29 26 33 27 26 28 32 31 22 22 13 13 19 19 20 20 21 23 19 17 19 23 22 22 20 23 32 35 34 35 33 30 30
20 20 20 21 20 21 20 19 18 18 18 18 18 19 18 18 19 18 18 18 19 19 18 18 16 18 18 22 34 27 27 44 23 20 13 11 10 10 13 17 18 21 23 27 27 29 25 25 27 26 26 29 27 34 26 26 26 29 32 23 27 28 32 29 23 11 15 18 21 20 19 25 24 28 19 22 20 23 22 19 22 30 34 35 35 30 31 31
20 20 20 20 21 22 22 21 20 18 19 18 18 18 18 18 18 19 18 18 18 18 17 17 16 16 16 27 28 22 28 31 25 22 13 7 16 15 19 21 24 22 25 29 28 29 25 30 29 27 30 29 23 30 24 26 27 32 34 26 24 27 29 27 23 20 15 18 20 20 22 21 20 22 19 21 21 19 21 16 20 23 34 32 30 28 28 29
21 21 21 21 22 22 22 22 22 21 19 19 18 18 18 18 18 18 19 18 18 17 17 15 16 15 12 23 26 27 30 28 23 19 21 16 14 13 16 24 26 23 26 29 30 29 27 29 30 29 27 28 24 26 27 27 32 32 27 26 27 26 24 29 29 23 20 21 19 22 24 23 23 21 27 23 19 19 18 17 14 25 34 29 26 26 27 27
22 22 22 22 22 23 22 22 22 22 22 21 20 19 18 18 17 18 18 18 18 18 17 16 16 14 20 25 24 27 22 27 15 12 9 11 13 15 18 20 24 23 27 28 29 31 32 28 28 25 27 26 24 28 23 29 26 23 28 28 29 28 26 19 25 26 23 24 21 24 22 26 24 26 29 24 25 24 20 22 22 23 26 27 26 25 24 27
22 22 22 22 22 22 23 22 22 22 22 21 21 20 18 17 17 17 18 18 18 18 18 16 16 17 24 23 29 31 18 14 16 17 17 14 16 18 19 18 17 27 25 26 31 31 29 29 24 25 29 34 23 26 29 28 26 29 25 26 29 30 29 23 23 25 23 28 24 24 25 23 26 30 29 22 26 28 25 23 25 25 27 27 26 25 23 25
22 22 22 22 21 21 22 23 22 22 21 21 20 20 20 18 17 17 18 18 18 18 18 17 17 23 25 29 35 39 27 28 34 32 24 21 22 20 19 20 16 19 21 26 28 29 30 29 27 30 30 23 35 21 28 25 26 28 26 24 25 29 40 30 28 24 24 27 21 23 26 27 28 30 27 28 26 25 24 23 26 25 28 28 25 25 26 25
22 22 22 21 22 21 21 22 22 22 22 22 21 21 20 19 18 18 17 18 17 17 17 17 17 24 26 35 37 31 39 38 34 31 28 23 23 22 21 20 21 21 21 23 25 28 28 30 29 30 31 27 24 35 12 27 26 25 26 25 24 28 34 31 28 25 24 26 21 24 34 28 32 28 28 26 23 22 22 23 25 25 29 31 26 26 26 27
23 23 23 23 21 21 21 22 22 22 21 21 20 19 19 18 18 18 18 18 19 19 18 16 22 26 28 42 35 33 31 34 33 34 33 29 26 26 22 23 24 24 21 23 23 24 28 29 28 30 27 30 29 21 31 23 25 33 27 28 30 27 33 30 36 28 29 24 24 25 30 28 28 31 29 24 23 23 24 23 23 26 26 28 28 27 27 27
23 23 22 22 22 22 21 21 21 21 21 21 20 18 18 18 19 18 19 19 19 17 16 14 23 24 29 42 30 37 34 40 38 35 32 28 25 23 24 23 26 25 24 22 25 24 25 27 28 32 34 25 30 28 28 27 27 29 31 34 28 31 25 28 33 32 34 30 27 25 31 30 23 29 31 29 24 22 26 25 26 26 26 26 26 25 26 26
23 23 23 22 22 22 21 21 20 20 20 20 20 19 19 19 19 20 20 18 20 20 21 22 23 26 30 37 30 20 26 34 38 36 35 28 28 27 22 24 23 25 24 24 24 23 26 27 34 30 28 25 32 30 26 29 30 31 32 23 31 29 29 28 33 32 34 32 28 31 29 31 25 20 25 25 25 23 24 24 23 23 26 28 26 24 25 24
23 23 24 24 23 21 21 20 20 20 19 19 20 21 20 19 20 20 19 19 21 20 22 24 21 24 25 20 26 31 36 32 26 28 30 31 29 27 25 25 28 26 24 23 24 23 25 33 27 31 30 30 30 30 28 31 29 32 31 31 25 28 31 37 29 33 31 31 31 33 36 20 24 24 20 19 20 23 25 24 24 24 26 26 25 25 23 23
24 24 24 23 23 21 20 20 20 20 20 19 19 19 25 18 18 17 19 21 22 22 21 25 22 20 39 39 37 34 26 28 28 28 26 29 30 28 27 31 24 25 24 27 28 31 29 35 32 32 29 32 33 35 36 34 33 28 29 29 30 27 30 29 34 32 31 33 30 31 36 20 24 19 20 18 17 20 24 24 24 25 23 23 24 21 22 22
25 25 24 23 22 21 20 20 21 21 20 19 23 25 23 19 26 26 29 23 23 16 18 28 29 30 17 22 42 31 29 17 14 21 24 25 29 29 28 27 24 29 31 32 33 31 33 30 29 32 38 39 38 37 35 26 26 27 26 28 28 28 32 37 31 29 33 33 35 31 36 29 23 25 23 21 22 20 23 21 23 22 22 24 24 28 25 24
24 24 23 23 22 21 19 19 19 20 20 19 24 23 22 23 20 26 29 28 33 29 21 20 35 31 38 37 18 26 25 18 22 23 23 24 28 29 29 30 27 31 32 36 34 38 30 36 39 39 34 34 32 32 31 32 26 25 27 26 32 32 27 29 30 26 32 32 33 31 29 32 27 28 27 24 21 21 24 25 24 26 25 23 27 22 24 24
24 22 23 25 24 22 20 19 18 18 19 25 24 24 26 26 22 25 16 30 31 32 35 30 34 34 43 38 31 22 20 27 28 25 28 24 26 27 35 32 33 35 36 31 33 34 33 37 37 33 31 30 33 30 30 33 33 29 25 27 32 32 32 29 33 25 34 28 28 29 28 33 30 30 31 28 26 25 25 25 23 26 24 24 26 23 23 24
23 23 25 25 24 22 20 19 17 17 17 22 23 31 29 28 24 20 20 29 23 33 34 36 30 32 30 39 37 33 31 32 30 26 28 28 32 38 31 35 35 36 32 35 32 39 42 43 34 30 31 29 29 33 30 34 34 33 31 27 30 32 30 24 33 30 30 28 25 29 31 31 32 32 34 33 28 26 27 26 24 28 27 25 25 24 24 24
23 25 28 26 23 21 20 19 17 15 24 23 28 28 34 25 21 22 23 28 32 26 32 36 37 37 37 36 35 26 29 29 28 24 31 31 31 38 33 39 35 34 38 38 40 38 39 37 32 31 30 31 30 31 31 33 33 30 30 30 32 27 34 34 32 24 25 31 25 27 30 30 29 32 33 29 29 26 23 26 24 27 28 26 27 25 27 25
24 26 26 24 21 19 19 17 16 19 25 26 26 28 24 22 22 20 22 28 25 23 33 34 35 36 40 43 34 32 31 34 30 25 28 36 36 32 36 37 33 38 41 40 36 38 35 25 30 30 30 32 31 31 31 34 33 31 30 28 28 28 35 34 28 25 22 26 31 25 31 32 29 33 33 32 35 28 24 24 24 24 21 28 28 25 25 24
26 25 24 22 21 20 16 15 19 24 22 23 26 23 21 22 18 17 20 26 31 40 28 31 32 36 39 32 32 40 30 36 32 27 30 33 35 37 35 40 39 39 34 37 36 36 32 28 31 34 33 33 33 34 36 32 32 32 29 27 23 25 31 33 26 27 29 31 35 32 34 36 30 33 32 33 41 36 32 27 27 26 25 29 27 25 25 22
24 23 22 22 21 18 16 19 15 19 18 22 18 19 19 18 18 19 18 20 27 29 35 40 34 40 40 40 35 36 27 45 34 36 29 35 31 37 36 39 42 37 35 38 41 39 31 28 35 36 34 35 35 32 32 32 31 29 33 30 29 26 29 29 31 27 28 32 33 32 33 30 29 32 30 28 33 27 28 27 26 26 24 22 24 26 25 25
22 23 22 21 19 16 19 17 20 20 20 15 15 17 14 14 14 13 17 21 27 34 40 30 37 41 48 35 38 31 41 42 30 35 36 33 39 34 34 33 36 30 37 35 41 43 33 34 35 35 35 38 36 37 36 36 33 33 22 29 28 28 31 28 29 27 24 22 26 31 37 30 28 32 32 34 30 29 26 27 27 28 24 22 21 25 25 26
23 24 22 20 18 13 20 26 22 19 17 14 18 13 13 13 12 12 15 18 30 32 38 39 41 32 38 34 37 47 36 18 40 39 34 28 34 35 39 31 36 32 35 37 40 27 30 36 36 38 35 39 39 31 27 34 39 27 23 29 31 27 29 30 30 28 26 25 30 35 33 39 30 29 35 38 36 31 33 27 25 26 24 24 23 24 25 25
24 24 23 19 18 20 23 21 19 20 14 15 18 18 14 13 17 19 19 19 21 24 33 34 34 28 27 32 43 37 42 36 32 32 33 30 36 31 40 31 34 31 32 35 33 31 36 32 36 35 37 37 29 31 28 33 37 27 25 29 27 24 26 32 30 29 29 29 29 30 33 40 31 24 34 35 33 37 37 34 33 27 26 27 24 21 22 24
23 23 22 18 19 20 19 20 20 14 17 16 14 15 12 14 16 15 20 20 24 16 20 28 35 31 31 38 40 39 40 34 30 40 36 38 34 34 32 24 33 35 37 35 32 30 33 29 31 39 41 32 30 31 30 31 31 24 26 30 29 26 24 26 25 30 29 33 31 29 32 33 34 27 32 35 39 35 40 35 30 31 32 31 27 25 23 23
23 24 22 17 20 17 17 15 16 18 19 15 10 13 12 14 19 23 16 19 28 17 21 26 32 27 35 35 39 39 37 33 34 43 41 34 34 34 29 32 34 37 35 38 40 36 36 36 39 41 31 32 28 34 31 27 34 31 31 29 30 26 23 23 25 23 31 32 30 30 33 35 37 27 29 31 33 38 39 38 36 35 36 33 28 27 25 22
23 22 20 22 22 20 19 15 13 16 13 12 11 15 13 18 18 22 20 22 22 17 16 16 26 36 36 32 30 44 46 38 32 49 44 45 39 42 41 36 46 49 45 44 45 38 42 43 32 30 32 33 35 31 32 30 36 37 28 30 34 32 30 31 29 32 34 31 25 31 30 33 38 30 25 24 33 34 39 39 40 38 38 33 27 25 25 22
23 22 24 23 18 18 19 16 12 10 10 9 14 11 12 16 20 21 28 18 12 8 15 20 22 31 33 33 36 37 36 34 37 38 37 42 37 35 33 35 37 41 46 43 39 42 37 36 36 32 30 38 32 39 39 37 39 36 33 34 37 36 33 27 32 26 26 25 24 29 33 41 22 31 32 24 24 27 29 33 40 38 39 35 32 28 28 25
23 23 27 17 19 20 15 11 11 9 7 8 12 12 12 18 18 12 15 12 10 13 17 17 24 27 33 44 32 38 41 32 36 44 38 41 39 39 42 35 37 37 35 40 47 41 36 46 45 39 40 36 40 36 31 29 35 36 25 34 29 31 37 28 32 32 28 25 27 24 36 37 30 21 24 28 21 22 30 31 33 34 36 36 33 31 29 25
27 26 23 21 21 20 17 14 11 9 10 11 11 14 16 21 19 16 14 16 10 17 18 23 23 24 34 35 31 40 34 41 36 36 41 41 42 43 45 41 40 36 34 42 42 41 35 36 35 37 22 36 35 33 30 30 31 32 29 27 32 34 25 28 21 25 27 27 29 32 32 25 29 21 18 25 23 24 25 28 33 36 33 31 30 31 30 28
24 18 18 19 17 15 16 12 12 12 14 13 13 20 22 16 14 9 9 7 13 17 24 25 18 25 34 35 34 39 38 31 37 39 40 39 38 43 37 38 50 42 41 43 36 39 38 38 32 39 31 36 35 33 34 32 39 37 33 37 32 22 25 21 18 16 15 23 31 21 29 30 24 17 15 15 20 21 20 28 34 33 32 32 33 32 30 29
18 17 14 14 18 17 13 14 13 14 14 14 18 24 21 19 18 18 12 7 6 11 15 15 24 27 36 38 39 41 41 32 42 42 42 37 43 36 43 36 36 44 36 35 40 30 32 28 34 39 37 34 33 30 31 33 28 35 40 30 22 24 27 29 27 20 24 26 25 28 28 30 33 31 24 22 22 23 23 32 35 32 32 31 30 32 31 28
21 16 17 18 15 13 14 14 14 14 14 16 23 20 18 19 14 17 13 11 11 11 17 14 17 23 30 35 42 44 34 33 43 43 35 41 46 36 36 47 40 43 35 32 31 37 33 31 37 35 32 32 32 30 34 29 31 29 32 21 36 31 30 32 26 27 29 29 30 33 27 31 34 25 27 28 27 25 25 28 30 31 32 28 29 28 30 28
19 18 17 14 15 13 13 14 14 15 15 20 25 25 12 20 18 17 13 12 12 13 17 12 12 25 27 33 37 40 37 40 44 39 41 47 42 42 42 35 44 41 37 33 35 35 33 29 33 35 37 33 34 36 35 33 33 29 26 35 30 24 29 30 33 22 29 24 23 29 31 32 33 32 25 27 28 27 27 29 29 31 34 29 32 32 32 33
17 17 13 14 14 13 14 14 14 16 18 21 22 25 18 25 18 11 11 11 11 13 12 17 14 19 23 23 38 39 35 30 43 39 32 40 38 40 42 39 43 48 38 32 29 28 30 23 31 38 32 34 42 44 36 34 36 36 31 35 38 33 22 27 28 31 29 28 27 24 32 34 26 26 25 25 26 27 26 27 27 33 34 32 31 33 33 32
16 19 17 13 16 15 15 13 16 22 22 24 23 27 26 27 17 15 12 11 19 16 21 20 20 20 17 30 41 33 35 34 43 37 32 36 37 46 40 42 37 43 42 34 28 34 31 34 26 38 45 39 34 33 29 31 32 31 27 29 33 30 31 31 31 29 31 32 31 27 29 26 22 22 22 27 25 26 26 25 26 29 34 34 34 33 31 32
20 20 16 15 16 14 15 17 22 19 24 23 24 23 25 16 21 17 15 11 15 23 17 24 22 24 23 30 33 34 32 35 36 29 27 31 30 31 40 41 37 37 48 42 31 30 26 29 29 34 40 34 29 31 31 27 30 30 28 29 31 30 28 33 29 28 29 29 25 28 21 22 14 15 16 17 21 24 24 25 25 31 34 33 34 32 30 30
19 20 16 14 15 15 15 21 26 27 25 26 21 24 20 22 17 18 19 13 20 18 22 22 20 18 24 33 36 34 27 37 33 29 27 28 31 32 42 42 37 41 41 42 29 38 11 34 34 29 29 27 28 29 32 28 29 32 33 31 29 34 31 29 28 22 26 23 28 24 25 19 16 12 10 16 17 18 22 22 24 29 33 33 33 31 31 29
19 22 14 15 13 13 18 23 21 18 21 19 18 23 18 24 23 21 19 16 16 12 16 15 17 22 22 27 33 33 26 31 31 24 31 25 34 30 40 40 39 48 41 33 33 32 31 27 30 32 35 36 33 33 37 33 35 36 34 35 28 27 30 26 24 24 27 27 25 25 27 17 19 11 12 17 20 21 21 25 21 29 30 31 33 32 30 29
24 17 16 12 15 14 19 18 22 24 24 23 26 25 27 21 12 16 18 19 17 21 22 17 19 18 24 27 34 24 25 23 36 22 23 23 28 34 39 38 40 36 32 28 14 32 25 23 33 36 37 38 44 45 47 41 38 32 28 33 32 29 31 31 27 27 25 22 28 27 21 17 14 15 15 17 20 21 22 24 30 30 30 31 30 31 32 29
11 18 7 15 17 16 22 21 23 22 23 19 19 21 17 17 17 13 15 19 20 21 23 23 26 21 21 26 29 27 24 24 23 27 30 30 29 40 38 36 39 36 29 20 18 31 29 27 28 29 31 28 28 25 21 26 31 35 30 31 34 30 29 28 24 25 26 17 23 22 21 19 16 15 17 20 18 21 23 23 30 30 27 29 29 31 29 29
15 11 13 14 13 20 22 16 17 13 12 10 17 10 8 8 19 20 13 15 16 21 19 18 19 22 20 22 23 25 24 26 22 25 27 25 25 33 36 33 38 32 17 24 18 28 26 29 26 25 27 26 28 27 25 30 31 29 28 30 31 33 28 29 26 28 20 21 24 22 21 19 20 18 16 17 18 20 24 22 27 27 25 27 29 26 23 27
14 8 8 8 13 13 13 12 12 12 15 7 13 8 10 13 15 10 10 18 15 13 14 13 21 20 21 23 24 25 25 23 25 24 28 26 26 32 40 35 36 25 23 32 25 26 25 24 23 22 24 29 29 28 26 31 29 29 27 26 30 31 30 28 25 26 21 21 18 18 21 22 19 18 19 18 18 25 23 20 21 22 24 24 27 30 33 28
10 18 14 8 14 12 14 20 18 19 20 12 13 7 11 12 12 13 11 11 12 14 17 10 20 23 25 23 21 24 24 26 21 25 29 27 25 36 38 37 32 30 29 29 30 24 26 22 23 21 21 23 25 27 31 31 29 29 29 27 27 29 30 28 24 23 24 19 20 16 14 21 20 20 21 21 24 28 27 26 22 24 24 26 27 27 27 28
17 16 14 15 18 27 26 17 10 9 14 10 10 9 8 6 10 12 11 11 10 11 13 16 21 22 25 19 18 21 19 16 19 21 25 23 28 29 33 31 35 33 33 30 28 21 26 24 22 24 18 16 13 21 26 31 30 29 28 26 28 27 30 29 24 23 22 22 19 19 14 20 20 17 18 22 24 28 27 25 25 23 26 28 27 28 29 28
17 15 19 23 30 22 20 18 14 13 9 5 11 7 6 9 14 16 12 16 15 11 12 16 17 21 24 17 17 17 24 25 16 17 19 24 28 29 32 35 33 35 36 33 27 26 25 16 26 27 20 21 16 20 24 29 28 28 27 27 28 27 28 28 32 25 25 22 18 18 15 16 19 26 21 21 22 27 29 28 26 25 27 28 28 30 28 27
20 15 16 19 18 17 24 19 20 16 14 14 14 10 14 13 14 12 10 11 14 13 10 13 17 19 19 22 20 16 19 24 22 21 22 24 23 25 25 29 32 34 34 32 25 29 27 19 26 25 25 18 20 19 19 21 24 29 26 29 27 26 24 25 27 24 25 20 21 18 21 13 23 23 20 19 21 22 26 27 27 25 25 25 26 27 29 28
Wind_Speed
12 12 12 11 12 11 11 12 12 12 12 12 12 12 13 12 13 14 14 14 12 13 14 14 15 15 16 18 18 20 19 16 19 15 15 17 9 10 8 8 8 5 4 8 10 11 10 12 13 12 11 10 9 11 11 14 10 9 11 11 14 13 15 13 15 12 14 13 10 7 4 7 12 3 5 8 8 8 8 8 8 1 11 25 23 25 25 23
13 13 13 12 12 12 12 12 12 12 12 13 13 12 12 13 12 13 14 14 14 13 12 14 15 16 17 18 19 19 18 18 18 20 22 17 5 8 11 10 5 7 3 9 11 11 11 11 12 12 12 11 10 11 12 10 12 11 10 11 14 13 12 13 13 16 15 13 17 11 4 3 3 4 2 3 7 9 10 9 10 19 16 23 25 24 24 23
13 14 13 13 13 13 13 13 13 13 13 13 13 14 13 13 13 13 13 14 15 15 15 12 14 16 17 18 18 16 18 19 17 20 19 7 11 11 10 9 7 6 7 10 11 12 12 11 12 12 11 11 11 12 14 12 12 14 11 12 14 14 15 16 15 17 17 17 9 6 9 3 9 8 4 7 6 8 9 7 12 16 21 21 21 23 21 20
13 14 13 13 13 13 13 13 13 13 14 13 14 14 14 14 13 13 13 13 14 14 14 13 13 16 17 19 16 16 16 17 16 4 9 7 8 7 7 9 9 7 9 12 12 13 12 13 12 13 11 12 10 14 13 13 11 10 13 13 11 13 15 16 18 18 16 5 8 8 3 5 6 5 5 8 9 11 11 10 12 20 21 21 21 22 20 19
14 13 14 14 13 13 13 13 13 14 13 14 13 14 14 15 14 14 14 13 13 13 14 16 14 15 16 19 17 14 15 10 2 9 8 8 7 7 6 8 8 9 12 11 11 14 14 13 12 12 12 10 13 12 14 15 14 9 15 16 16 14 14 15 19 20 16 9 8 10 9 8 4 11 9 5 9 6 8 9 11 22 22 24 22 21 19 20
16 16 15 15 15 14 13 14 13 13 14 14 14 14 14 14 15 14 14 14 14 13 13 14 11 14 16 17 17 14 9 4 5 8 6 7 4 6 8 9 10 10 12 13 12 12 13 13 14 12 11 12 13 14 13 16 15 13 13 15 17 17 17 13 13 3 6 8 9 9 10 10 5 11 6 10 12 11 13 9 8 22 23 23 22 21 19 20
15 15 16 16 16 17 16 15 14 13 13 14 14 14 14 14 15 15 14 14 14 14 12 14 12 13 14 17 17 15 12 13 12 6 8 8 7 8 9 10 10 9 13 14 14 12 14 14 14 13 12 13 15 15 16 15 16 14 13 13 15 15 20 19 15 6 3 9 10 6 9 14 11 18 6 10 9 11 14 9 8 20 22 23 22 21 21 19
15 15 15 15 16 16 17 17 17 15 14 14 14 14 13 14 14 15 14 14 14 14 12 13 13 11 12 13 13 8 12 14 15 11 6 3 10 10 11 10 10 10 13 16 15 16 14 16 15 13 13 12 10 15 14 16 17 16 15 15 14 15 18 18 14 12 4 5 9 11 13 13 13 10 6 12 13 12 14 8 12 15 20 19 21 19 17 17
17 16 16 16 16 16 16 16 16 17 16 15 14 14 14 13 14 14 15 14 14 14 14 12 13 11 7 10 11 13 13 11 13 11 11 10 6 5 7 11 15 12 13 15 16 15 14 14 16 14 11 14 13 15 16 14 13 15 16 15 15 15 13 15 17 14 10 8 8 11 15 13 14 10 14 13 12 4 11 9 7 14 18 18 17 16 17 16
16 16 17 17 17 17 17 17 16 16 17 17 16 15 14 14 13 13 14 14 14 14 14 13 12 10 10 9 11 12 11 18 8 6 4 5 4 6 10 11 13 13 14 15 16 17 17 12 15 14 15 14 13 15 13 17 11 12 17 18 17 17 16 11 15 17 14 12 9 12 12 14 13 11 11 14 16 8 12 9 8 9 16 15 14 13 13 11
16 16 16 16 17 17 17 17 17 17 17 17 17 16 15 14 13 12 13 14 14 15 15 13 11 12 11 11 12 14 9 7 6 8 11 9 9 9 10 10 10 14 14 14 17 18 17 17 13 9 12 10 12 15 15 13 13 15 14 17 19 16 18 15 13 13 8 11 15 14 15 14 14 15 14 13 14 16 16 13 11 12 12 11 12 13 10 14
17 17 16 16 16 16 17 16 16 17 16 17 16 16 16 15 14 13 13 13 14 14 14 13 12 8 12 14 15 16 16 16 19 18 13 12 12 11 12 12 9 10 12 15 16 16 17 17 16 14 10 10 14 12 15 16 15 15 18 9 11 16 17 19 16 14 14 12 12 13 16 16 15 16 17 18 17 16 16 13 16 14 14 13 12 12 11 13
18 18 18 17 16 16 16 16 16 16 16 16 16 15 15 15 14 14 13 13 13 13 13 13 11 9 12 17 18 17 23 21 19 20 17 12 13 12 12 12 11 11 11 12 14 16 16 16 17 17 16 13 12 11 3 10 15 13 14 11 12 13 15 19 17 14 14 12 13 11 12 13 16 16 17 17 13 7 9 11 13 11 10 12 12 11 12 12
18 17 17 18 17 16 16 15 16 16 16 15 15 15 14 14 14 14 14 14 15 15 14 13 10 10 13 14 9 15 19 18 21 21 20 16 16 15 14 13 12 12 11 12 13 11 16 15 17 17 13 16 12 8 18 7 8 13 12 11 12 11 12 15 16 16 17 11 15 14 12 10 14 16 11 4 9 10 11 12 12 13 15 13 14 12 11 10
18 18 18 17 18 17 16 16 16 16 16 16 16 15 15 15 15 15 15 15 15 13 13 11 10 9 11 13 15 23 26 24 24 21 18 16 15 13 14 13 15 15 14 13 10 11 11 15 17 15 13 14 15 15 12 12 9 10 11 15 12 13 11 15 19 19 17 14 16 15 13 12 11 15 19 16 15 13 14 11 10 12 14 16 13 11 11 8
18 18 18 18 17 17 17 16 16 15 14 16 16 15 16 16 15 16 16 14 15 16 11 10 10 11 12 14 9 13 13 19 23 23 20 17 16 16 13 14 14 15 15 13 10 8 11 13 15 13 13 14 15 12 12 10 12 12 14 12 13 13 12 13 17 19 22 16 16 18 11 11 5 10 6 8 15 13 9 12 4 9 17 17 14 11 12 9
18 18 18 18 18 17 17 16 15 16 15 15 16 16 16 15 16 16 15 16 11 9 7 8 9 9 10 3 9 15 16 16 15 14 17 17 18 17 15 14 14 16 15 14 12 12 12 13 10 13 14 12 12 13 12 11 11 12 13 12 12 14 13 13 14 20 20 19 15 20 14 11 7 8 8 5 2 8 10 7 7 8 4 9 7 7 11 9
17 18 18 18 18 17 16 16 15 14 16 15 15 16 14 15 14 14 13 12 9 9 9 8 9 9 14 17 17 18 14 14 13 14 16 15 19 18 17 14 13 15 14 14 14 15 12 11 12 13 12 14 14 15 15 14 12 10 10 11 12 14 16 14 14 16 18 20 18 17 18 8 13 8 5 9 5 7 8 7 9 8 8 9 8 7 11 8
18 17 19 18 18 18 16 15 14 14 14 15 19 21 19 16 10 11 12 9 9 6 5 9 11 10 4 5 27 18 13 8 2 13 14 15 16 16 16 15 14 17 14 14 12 17 12 12 13 13 16 16 17 17 16 12 14 15 14 12 13 13 13 14 17 15 19 18 17 18 16 13 11 13 10 8 9 11 11 8 5 11 9 10 5 5 10 9
18 18 17 19 18 17 16 14 14 14 13 12 11 9 6 6 6 7 12 13 15 15 11 7 16 14 16 23 9 13 13 8 7 5 9 11 14 18 18 15 15 16 15 14 15 19 12 15 16 18 15 17 19 19 18 17 16 16 15 14 15 15 14 14 18 14 20 15 17 18 16 17 15 15 14 11 10 10 9 8 5 16 9 5 7 4 9 8
18 18 19 20 19 18 16 15 14 14 13 11 12 10 9 9 8 6 3 11 17 19 20 18 14 17 19 20 16 8 8 9 10 11 14 8 11 15 16 16 16 16 17 17 14 14 15 16 17 19 19 19 21 18 16 18 21 18 13 15 12 15 15 14 16 15 19 13 14 18 17 18 17 16 16 15 12 12 12 11 9 16 12 4 7 7 6 5
18 19 20 20 19 18 17 16 14 13 14 10 10 12 11 15 12 9 7 10 11 19 21 21 18 18 15 22 23 16 18 14 15 16 15 14 14 15 15 17 18 16 16 17 14 15 18 19 17 18 18 18 18 19 18 19 21 20 15 12 11 12 15 14 16 19 16 13 10 17 17 15 16 19 16 16 15 13 11 11 12 16 14 8 8 11 7 10
18 19 22 21 18 17 16 16 14 12 9 9 10 14 15 14 11 9 9 8 13 14 17 20 20 20 19 18 17 13 16 13 11 13 13 17 16 18 15 17 17 16 18 20 18 17 16 16 19 19 17 19 18 20 20 18 18 15 14 14 12 12 13 11 17 14 9 7 8 12 15 12 13 17 13 11 13 11 11 9 13 15 14 13 12 13 14 12
19 20 21 19 17 16 16 14 13 12 10 13 15 15 13 12 9 10 3 6 8 11 16 18 18 18 21 19 11 15 14 11 12 14 14 16 17 17 15 20 19 18 18 23 22 17 16 14 17 19 19 20 19 18 18 15 15 17 17 14 10 15 15 15 9 12 10 10 11 11 10 10 12 16 11 11 11 10 9 8 13 14 9 12 9 9 14 15
19 19 19 18 17 16 13 12 9 8 7 10 12 12 8 11 8 8 4 6 8 12 17 17 13 16 17 15 16 13 12 14 16 13 11 16 18 16 17 14 14 18 19 22 22 18 17 17 19 21 21 21 20 17 19 16 14 15 18 17 14 13 14 21 9 13 6 9 12 14 9 11 7 18 17 13 10 8 1 8 11 14 11 13 14 11 11 11
18 18 18 17 17 14 13 8 2 5 8 8 6 8 9 3 4 2 1 3 9 10 13 17 12 15 12 18 17 14 13 17 18 16 15 12 15 16 12 13 13 19 22 22 19 12 13 17 20 22 21 21 22 17 19 19 14 14 14 19 19 14 15 17 18 13 9 10 10 15 14 6 11 16 14 12 11 7 4 4 7 11 6 6 9 12 11 12
18 18 18 17 15 13 8 5 10 11 9 6 6 3 5 3 5 4 3 4 8 11 17 9 15 7 12 18 16 14 15 16 13 18 20 15 17 14 16 14 15 11 14 11 10 14 15 21 21 22 21 20 19 18 18 21 15 13 11 18 18 18 17 18 18 12 7 6 11 16 14 11 10 12 15 15 13 9 5 1 3 5 11 9 8 10 12 12
19 19 18 16 14 10 8 10 11 9 5 6 6 4 3 2 3 3 4 4 5 8 11 12 12 12 16 15 21 20 16 4 14 18 22 15 16 16 17 18 17 18 18 16 18 12 18 19 21 23 21 17 18 17 16 20 16 10 12 17 18 17 15 14 12 13 10 8 10 12 17 11 9 12 14 16 11 8 7 8 7 8 10 12 12 11 10 13
19 19 19 16 15 16 11 8 9 10 6 5 7 9 3 2 2 2 4 6 4 3 9 12 10 12 12 18 21 21 16 16 10 15 18 17 19 13 15 18 17 19 19 20 13 14 14 18 20 20 18 16 16 18 16 20 17 15 15 14 14 15 14 15 13 13 11 10 9 13 16 11 11 11 9 10 12 9 8 7 7 6 7 9 8 7 10 7
18 19 18 15 12 9 6 6 5 4 7 7 6 3 2 4 2 3 3 6 8 3 8 1 12 13 14 17 17 20 21 15 13 14 18 15 17 21 14 14 15 17 17 19 17 15 15 15 17 15 18 15 16 17 17 18 19 14 17 11 14 14 11 11 11 11 8 8 13 16 18 13 9 10 15 14 11 14 9 6 5 6 7 6 7 9 11 7
18 19 17 14 8 6 7 5 4 5 5 5 4 6 2 3 4 4 7 2 8 5 8 9 12 14 15 17 14 19 23 18 17 17 17 16 16 19 13 13 15 14 14 16 18 18 19 17 15 14 17 14 16 16 18 16 18 18 12 11 12 10 6 7 4 6 7 10 15 17 15 20 13 9 9 14 20 19 17 14 14 14 13 13 13 14 15 11
18 17 16 11 9 8 7 6 4 1 3 5 5 6 3 3 2 4 4 5 7 6 5 5 8 8 15 15 14 19 18 18 14 20 18 14 15 17 17 14 14 16 17 18 17 18 18 18 15 16 17 22 18 16 16 16 17 18 13 11 12 9 5 6 8 8 10 7 9 15 16 15 16 6 9 14 20 22 21 19 21 20 18 17 18 17 12 13
20 18 20 13 10 8 9 7 5 2 2 3 6 3 4 4 6 5 8 3 2 1 4 4 10 13 9 15 14 18 19 16 16 18 19 17 16 17 18 16 17 15 15 17 16 17 14 18 21 19 17 16 17 16 16 15 17 19 15 13 14 12 10 8 10 6 8 9 14 11 13 12 8 7 14 12 16 16 17 22 25 24 21 17 16 13 11 11
19 19 12 9 8 8 7 5 4 2 1 2 4 3 3 4 5 4 3 4 3 2 8 5 10 14 14 10 15 18 17 17 16 16 19 15 16 16 15 20 20 18 12 14 16 17 14 16 20 20 13 16 16 15 14 12 15 16 12 13 12 11 9 8 9 9 9 7 12 14 10 7 10 5 11 13 11 15 19 17 20 20 19 19 16 15 14 13
23 18 12 10 9 9 9 6 4 4 3 4 3 4 4 6 5 6 4 2 1 5 9 10 10 9 12 14 16 18 16 14 18 18 18 17 16 15 17 16 22 19 15 15 12 8 19 13 17 17 10 17 17 17 15 16 13 14 11 10 11 13 8 10 6 8 7 8 7 9 5 7 10 3 2 6 11 13 16 16 20 17 15 17 15 16 15 15
17 6 3 6 6 6 8 5 5 5 3 3 4 6 8 4 4 2 1 1 4 6 10 14 8 9 9 12 16 19 23 12 19 17 16 18 18 18 20 14 17 23 14 13 11 13 17 13 17 16 15 20 21 18 16 16 12 13 12 15 14 11 11 4 3 7 3 3 6 3 8 8 7 8 4 7 7 12 12 18 20 19 17 15 13 12 14 12
7 6 5 5 8 6 5 5 5 5 3 3 5 9 6 5 8 9 2 3 2 5 7 7 3 6 11 12 12 20 20 17 16 15 13 18 17 19 20 16 17 23 18 14 12 10 10 11 18 19 20 16 20 19 18 19 12 11 13 13 12 13 13 6 6 5 4 6 4 9 12 11 10 5 10 9 1 7 6 15 19 21 20 18 13 12 11 13
10 6 8 8 6 6 7 7 6 6 4 4 9 13 7 7 4 7 7 5 5 4 5 3 3 6 10 12 13 20 20 13 17 15 13 19 11 20 19 16 22 21 20 17 8 11 12 10 16 21 19 16 18 18 20 19 17 12 14 9 12 9 11 9 3 7 9 7 4 10 14 10 12 7 11 13 8 7 11 14 18 19 18 16 17 16 14 14
9 7 6 6 6 6 4 5 6 3 3 6 8 9 2 8 9 7 7 5 4 5 5 2 3 3 5 11 12 20 18 11 17 15 13 16 13 20 20 14 18 23 20 19 13 9 11 6 11 18 21 18 16 15 13 13 17 18 15 15 13 6 10 7 5 6 7 6 6 9 14 7 12 10 10 12 12 10 14 15 17 18 17 16 14 16 17 14
7 5 3 1 5 5 6 6 4 4 5 8 8 8 3 9 8 3 3 2 3 5 3 5 5 6 7 9 12 16 15 13 16 14 13 13 13 23 21 22 16 22 20 19 12 12 6 3 8 16 18 15 14 13 15 15 16 15 13 14 12 8 6 9 9 11 8 6 7 5 7 8 8 4 7 10 13 11 13 16 16 17 17 17 17 14 13 14
7 5 3 4 5 6 6 3 4 7 8 9 11 10 12 10 8 8 6 6 8 6 9 8 7 6 4 5 10 18 11 12 15 13 12 17 14 14 20 19 15 21 21 20 13 9 2 7 8 14 15 16 15 14 14 15 14 12 10 11 14 13 11 13 10 9 9 8 6 6 6 7 7 8 10 11 12 12 13 13 16 18 18 18 16 15 15 13
8 6 1 6 6 6 5 7 7 7 7 9 8 6 9 7 10 9 8 5 8 7 5 8 10 10 9 11 12 16 11 12 15 13 11 13 16 13 18 27 20 20 17 11 9 12 5 7 7 9 13 14 16 16 16 15 15 15 11 10 13 12 11 11 7 8 8 8 9 10 4 4 4 8 4 2 9 13 12 13 14 18 18 17 16 16 13 13
6 6 4 6 6 5 5 8 10 8 8 8 12 14 11 10 9 7 9 6 8 5 6 8 9 8 11 11 12 12 14 10 16 13 11 15 14 16 19 28 21 20 16 12 15 13 3 5 10 12 13 13 14 16 18 17 16 16 15 12 11 14 14 8 7 5 6 8 8 6 6 1 8 6 2 6 3 1 2 4 12 16 14 14 16 15 15 11
7 9 3 5 6 4 6 9 8 7 7 9 10 12 11 11 11 10 9 9 5 2 2 4 8 11 10 10 10 11 14 7 16 13 11 15 12 18 25 27 26 19 18 8 8 10 5 6 10 11 11 13 14 14 16 18 14 12 12 12 12 13 18 11 10 7 5 10 11 7 8 3 2 4 3 8 8 8 8 6 5 17 13 15 15 14 11 11
8 6 5 1 4 5 7 4 7 9 10 12 13 15 14 9 5 8 9 9 8 9 4 6 7 8 9 9 11 11 14 10 10 9 11 13 11 18 24 24 23 15 15 14 10 12 6 8 9 10 12 14 15 17 19 18 17 11 14 16 16 17 17 13 9 9 6 7 15 6 1 6 6 2 4 3 8 6 4 10 13 18 18 15 13 13 14 12
3 5 1 3 3 4 7 8 9 8 9 9 11 10 9 8 7 7 8 10 11 9 8 11 13 10 10 8 13 13 13 11 6 8 11 10 10 14 19 24 22 19 17 13 12 12 5 9 11 11 12 11 12 11 12 13 13 14 17 17 19 17 13 11 8 6 7 6 8 11 4 7 7 4 5 6 5 6 9 7 11 15 14 12 12 12 12 11
4 3 3 4 2 7 8 5 6 4 4 3 6 3 4 4 9 8 6 5 6 8 8 9 5 6 5 10 11 9 8 11 8 11 12 12 12 12 26 20 21 16 13 10 9 9 7 8 13 14 14 13 14 13 15 18 16 16 17 18 17 18 14 14 8 7 9 5 6 7 5 7 6 5 6 5 4 11 13 8 8 10 11 13 12 11 11 10
4 1 2 2 4 4 4 4 6 5 8 3 4 2 6 8 8 4 2 7 6 4 4 3 6 11 9 7 7 5 11 10 10 8 14 13 12 16 16 18 17 11 17 12 12 6 6 4 9 11 13 13 17 17 17 17 17 16 15 15 17 18 17 13 9 13 11 5 4 8 10 9 8 8 9 5 4 13 10 8 5 3 6 9 14 18 17 15
3 5 5 2 4 4 6 9 10 12 12 7 4 4 6 7 7 6 3 2 4 4 5 3 5 10 9 9 5 4 10 8 7 11 8 11 13 17 15 20 16 12 15 13 11 4 6 7 11 12 11 12 16 17 13 14 14 17 16 15 16 17 15 13 11 14 13 8 9 6 4 8 11 11 12 8 14 13 10 8 6 6 6 11 12 13 15 17
5 6 4 5 7 14 15 9 4 5 6 5 4 4 3 2 4 6 4 3 3 5 6 9 8 10 8 9 8 4 7 6 11 6 10 12 13 10 10 9 9 14 15 13 8 7 6 4 10 10 8 6 4 3 10 16 14 15 16 16 16 14 16 16 12 8 8 10 8 8 6 6 3 7 10 12 14 13 11 11 8 8 8 11 11 12 12 15
5 5 6 10 12 9 9 9 6 5 2 1 3 3 2 4 6 5 5 4 5 1 3 6 8 5 6 4 8 7 10 15 3 7 10 12 11 13 9 10 16 15 18 11 7 7 7 3 7 7 3 5 7 5 9 10 16 15 14 15 15 16 15 14 11 8 10 10 9 7 5 2 5 8 11 11 14 16 16 16 14 12 13 11 12 14 15 14
7 6 7 7 7 9 10 9 11 5 2 5 4 2 4 5 8 7 2 2 6 6 4 3 8 7 6 6 3 7 12 11 14 11 7 11 11 12 11 12 15 15 10 9 7 7 7 5 4 4 3 3 8 4 12 13 14 14 13 16 16 13 11 9 12 12 10 8 5 2 6 6 9 8 10 10 11 11 14 14 13 14 14 12 11 11 13 16
Wind_Direction
331 331 329 330 332 333 335 332 333 332 331 331 329 328 324 321 310 307 311 311 310 311 315 320 320 315 314 314 317 317 315 310 302 292 273 253 255 116 93 103 92 76 344 263 263 252 241 218 216 221 225 225 219 234 234 225 230 211 222 235 241 241 237 240 250 246 259 281 253 163 204 217 235 172 198 155 219 241 275 275 260 216 68 101 117 128 136 142
331 330 326 329 330 329 329 331 330 330 329 327 329 329 325 321 320 311 306 306 306 306 313 318 314 311 312 315 315 317 316 300 294 282 264 268 197 156 124 109 118 125 189 227 234 229 239 205 214 210 220 223 213 227 220 229 210 224 223 230 239 234 248 248 250 253 265 252 262 190 162 342 321 297 140 254 178 215 224 234 246 97 106 103 120 130 139 148
330 325 328 329 327 325 325 328 327 328 327 327 326 327 325 320 319 316 311 302 300 309 310 308 310 310 311 313 313 317 310 302 290 272 264 197 153 152 152 143 153 161 212 222 221 235 235 223 204 210 215 232 210 222 208 229 203 219 241 227 232 243 251 250 245 257 256 263 264 315 95 231 246 252 292 266 287 261 225 221 213 115 118 124 128 137 137 148
326 325 322 322 321 322 322 321 324 323 325 325 324 323 322 320 318 318 316 313 301 300 305 297 306 308 309 308 316 315 304 298 279 230 80 91 106 132 151 150 164 185 228 244 250 243 245 253 239 208 217 222 223 222 215 218 217 200 225 238 238 227 240 250 257 254 256 271 280 320 2 129 238 271 240 250 237 243 256 208 235 136 133 133 141 139 144 150
315 315 317 314 318 317 317 319 319 320 320 321 321 320 320 320 319 319 317 314 314 297 296 299 305 305 310 307 310 309 305 290 47 75 96 94 123 145 157 178 181 216 224 232 240 251 250 241 240 229 221 218 231 219 226 219 221 217 224 233 244 251 240 232 244 244 247 244 260 273 269 250 156 252 234 255 259 262 230 200 220 142 139 142 146 145 147 159
323 318 312 311 311 311 311 313 311 314 315 315 317 316 317 320 318 318 318 315 315 308 292 296 301 298 307 310 305 294 288 234 65 106 147 120 138 159 175 187 191 220 217 223 229 230 235 237 238 230 214 230 218 229 211 229 202 233 229 233 234 246 260 253 252 264 324 284 254 244 255 291 271 266 188 234 243 248 270 301 235 142 146 146 147 149 155 168
317 317 317 317 319 315 312 309 306 308 308 310 312 311 312 315 316 316 317 318 314 314 296 289 299 305 310 309 292 271 256 271 289 129 179 171 143 178 202 190 180 208 214 213 219 225 219 228 221 223 227 219 232 234 232 209 226 226 235 232 234 236 248 256 273 288 191 250 266 267 263 256 248 252 246 258 260 271 277 298 290 143 147 147 149 154 162 169
319 316 315 314 313 311 311 312 309 302 300 303 303 306 308 309 312 315 316 316 315 311 306 288 292 299 316 308 316 276 233 247 267 164 165 200 183 195 203 197 181 195 209 214 208 217 219 220 216 218 231 224 213 232 234 232 216 226 233 240 247 228 239 252 253 253 195 218 247 258 259 254 251 262 259 242 238 225 241 240 267 147 142 144 145 157 162 170
324 318 315 312 311 311 311 310 310 308 300 298 298 299 303 304 307 313 313 313 314 313 307 291 284 292 307 289 284 289 261 251 256 152 179 203 193 244 230 222 188 195 210 212 218 216 221 219 226 219 223 228 233 233 231 240 222 220 237 233 243 252 235 231 248 249 231 227 215 237 245 247 249 252 249 260 256 226 249 198 284 143 136 143 149 155 169 178
325 324 320 317 312 311 310 308 308 306 302 299 294 295 297 301 303 306 310 310 311 312 308 295 280 284 286 281 274 263 269 242 222 142 131 328 309 275 253 258 191 204 207 214 214 219 217 221 222 217 243 246 236 238 238 228 248 206 222 239 234 242 253 243 239 230 222 229 230 244 244 240 235 237 243 232 251 248 254 180 213 136 135 140 151 164 174 148
322 321 319 317 316 313 311 309 306 305 303 301 296 292 292 295 297 298 303 305 303 306 308 298 283 277 267 263 253 246 275 295 41 30 343 331 306 281 261 235 232 205 213 216 218 217 222 230 224 231 228 240 243 244 241 246 239 254 237 223 228 240 251 250 236 251 241 235 232 243 251 250 241 226 238 243 216 224 233 185 195 147 143 150 157 162 153 97
323 318 317 315 314 311 309 309 307 306 305 301 297 291 289 289 291 291 295 301 300 296 304 302 274 261 265 260 250 247 273 287 328 318 310 303 290 282 269 261 257 243 219 217 217 216 222 226 235 229 230 199 245 255 246 245 244 233 244 252 243 228 239 244 239 220 226 243 227 222 244 242 234 233 227 232 246 220 212 187 193 189 164 161 168 169 135 147
319 321 316 312 309 310 308 309 308 306 305 303 300 290 288 286 284 291 289 291 294 297 299 303 272 253 264 260 249 260 268 281 291 292 284 281 284 273 268 263 261 257 257 245 221 215 219 225 230 238 239 244 227 227 229 229 246 251 246 236 233 240 234 231 233 227 222 225 233 209 236 233 234 234 235 224 223 188 166 216 204 150 177 170 175 181 142 152
319 315 316 314 308 304 305 303 305 306 305 303 301 298 283 280 285 284 287 287 291 290 285 285 274 254 254 258 273 264 270 276 276 276 273 270 267 265 258 247 242 243 245 254 260 238 215 219 231 238 248 241 248 213 249 264 240 232 235 239 242 243 239 219 224 209 229 211 217 226 240 237 236 226 219 128 154 183 200 209 200 174 187 187 181 177 149 129
318 317 313 309 308 305 301 300 300 304 306 305 302 296 292 284 276 275 282 285 278 278 289 283 256 260 250 266 260 254 246 254 263 262 263 260 257 260 251 242 231 228 232 238 242 254 239 217 222 229 230 241 254 260 241 228 233 225 224 223 227 236 240 233 205 211 216 210 213 218 237 242 251 235 152 161 163 178 206 188 207 203 209 181 174 159 120 134
321 319 316 313 304 302 299 297 296 297 299 301 299 297 290 280 268 267 271 276 284 290 283 267 250 233 270 272 267 302 266 241 241 244 252 249 250 252 251 235 226 220 223 227 233 239 237 220 217 220 229 228 233 235 246 224 220 218 220 225 223 221 234 249 215 201 208 218 203 216 234 227 193 104 167 149 169 174 152 173 192 243 207 185 166 152 127 126
325 322 322 317 313 301 298 294 293 294 296 298 299 292 282 275 274 268 265 268 269 253 242 249 245 231 247 283 285 251 252 254 253 235 232 231 234 237 242 235 214 212 211 223 219 225 229 230 202 220 225 229 215 225 228 226 221 216 207 231 228 225 219 233 244 195 195 210 209 203 227 236 122 136 141 145 124 189 169 143 166 238 306 49 31 50 76 69
324 325 321 321 313 309 298 293 290 292 295 299 295 290 287 283 273 264 259 247 247 255 249 246 267 283 259 246 257 246 232 240 226 228 221 212 216 222 231 230 206 211 201 212 209 216 208 215 203 214 204 217 214 214 216 211 212 206 200 213 228 236 231 230 236 176 188 193 224 200 215 176 136 132 148 147 183 165 173 170 196 177 74 51 42 65 83 86
324 323 324 320 319 311 306 296 292 294 297 300 293 277 267 266 262 256 259 251 226 207 222 210 196 190 235 183 223 235 236 239 287 204 203 205 192 213 221 233 222 198 200 204 190 206 195 216 202 211 209 202 213 212 213 221 208 220 207 210 222 232 220 227 242 173 185 188 214 214 200 191 159 156 158 160 180 201 189 192 169 79 85 100 111 115 125 136
323 323 322 322 317 314 308 302 297 298 304 294 291 277 244 251 232 235 231 234 232 223 227 202 199 226 271 281 278 212 247 250 227 225 255 209 188 199 213 216 219 201 201 203 179 201 190 207 203 205 205 203 211 216 215 221 235 219 219 214 215 228 238 219 243 184 180 194 208 220 204 206 170 168 166 170 179 193 185 181 181 99 82 62 134 140 136 136
320 321 320 318 316 309 308 305 303 299 296 285 283 277 253 238 239 257 276 237 233 231 237 250 217 217 239 264 274 274 199 240 217 216 222 223 227 189 202 206 206 198 203 199 196 186 208 210 211 203 206 203 206 216 215 224 241 251 235 224 214 218 239 221 226 213 166 202 204 216 214 217 178 173 165 164 174 191 192 194 153 99 122 133 116 108 87 78
321 320 321 320 314 310 307 305 303 298 286 277 271 261 255 252 268 311 319 279 236 228 237 244 251 240 237 255 267 279 295 290 228 206 203 210 208 208 183 203 200 202 191 197 194 184 209 212 205 204 204 212 206 209 216 217 233 241 249 228 223 219 236 230 215 229 171 186 224 196 226 222 203 167 170 167 174 188 196 199 134 132 132 137 141 136 162 166
325 324 323 323 317 312 308 305 298 295 287 272 259 251 251 264 278 283 268 258 279 264 233 229 237 241 243 251 255 263 251 251 237 187 206 197 201 216 183 198 200 201 192 198 197 189 204 213 205 203 203 211 208 207 211 217 231 236 238 250 220 216 214 224 225 200 150 171 225 196 213 228 229 149 158 176 178 175 189 184 135 149 149 152 153 155 153 182
327 326 327 324 321 317 312 311 306 283 261 264 266 266 271 270 283 283 26 262 291 255 227 218 225 230 234 232 233 249 241 238 245 217 212 197 208 197 214 196 199 203 198 200 204 198 206 194 200 203 204 207 212 203 206 210 222 229 239 240 237 214 210 238 208 156 172 174 232 250 213 221 224 144 152 183 176 175 183 169 136 118 157 161 163 152 156 171
328 328 327 325 320 320 319 317 282 272 300 278 263 272 307 337 2 349 321 290 246 248 256 236 207 227 230 231 243 235 226 237 235 240 210 209 197 190 214 194 208 204 205 197 206 209 204 199 192 203 200 203 212 202 205 207 219 221 228 236 237 221 217 220 204 132 174 216 195 236 249 220 196 152 165 158 167 138 62 173 144 129 168 176 176 178 165 165
328 326 328 324 322 319 314 289 259 326 296 291 348 341 326 235 261 263 297 266 266 269 195 225 187 218 199 216 214 232 241 236 223 237 227 222 221 203 194 210 205 201 205 194 205 214 203 191 192 201 201 198 207 213 199 208 216 219 207 228 244 254 230 228 144 165 178 223 207 208 238 230 160 168 138 146 136 103 50 40 125 126 165 194 174 179 178 168
330 324 323 324 318 321 293 310 350 314 332 335 0 4 280 356 147 115 94 217 274 213 220 189 171 168 185 204 199 192 218 232 215 224 222 210 217 213 210 202 191 227 200 197 196 207 205 193 192 198 202 198 204 213 199 202 213 218 198 220 235 253 250 236 214 192 193 196 242 209 217 248 211 163 143 140 134 133 109 48 75 142 148 222 236 200 182 173
331 326 321 317 316 301 289 306 309 321 341 313 324 326 346 132 59 120 207 276 284 121 198 164 193 146 191 180 191 198 214 106 187 213 212 191 222 209 229 205 197 204 197 199 203 188 201 192 193 193 202 199 205 209 197 199 214 212 202 213 224 237 255 274 259 227 224 210 228 216 206 225 251 124 149 142 124 146 171 167 186 184 180 180 212 246 187 176
331 328 322 317 314 295 281 276 304 310 342 293 335 279 225 113 202 199 225 258 70 62 345 163 182 181 194 179 193 207 210 242 213 176 197 218 225 222 213 222 201 205 211 206 207 189 196 206 188 196 199 202 203 202 204 194 210 214 224 201 221 230 251 257 266 219 201 221 234 220 199 222 232 139 150 146 140 178 180 183 175 180 177 180 187 184 284 222
329 327 324 321 312 273 239 244 280 281 283 276 234 266 250 181 185 220 219 245 347 318 3 122 181 185 195 178 192 192 213 223 238 152 182 203 206 223 231 233 217 202 210 206 218 201 186 208 191 198 199 204 196 196 210 194 211 208 233 191 211 219 231 267 248 198 215 228 238 237 201 208 233 200 165 157 182 175 168 162 161 182 189 187 180 186 209 245
323 324 323 318 291 306 312 291 307 270 244 256 274 263 264 223 234 231 240 337 339 24 305 191 188 193 186 183 183 191 216 215 224 172 174 199 202 209 220 219 231 203 212 199 211 205 186 188 203 192 199 202 195 195 211 201 196 215 218 208 197 197 223 262 279 214 212 220 224 229 224 190 224 223 197 173 160 166 158 174 179 188 192 185 187 193 180 175
315 318 314 305 288 297 284 309 322 231 256 260 274 272 220 227 210 260 235 34 281 351 337 323 282 222 191 189 189 188 199 211 214 170 174 188 185 195 204 204 198 185 199 192 193 205 188 190 198 192 197 200 185 200 197 193 188 212 215 219 191 173 184 219 208 213 237 243 226 226 228 214 208 180 256 166 169 167 164 173 176 175 184 182 181 162 159 148
315 311 306 284 265 259 258 277 295 268 341 294 275 280 245 256 256 241 254 342 263 55 26 315 303 303 270 191 196 189 203 205 193 178 181 185 192 197 205 218 200 209 186 186 185 199 185 185 198 193 184 197 189 198 177 188 190 207 207 211 194 179 184 211 203 215 237 236 258 240 214 260 295 236 226 247 161 176 172 168 171 175 171 168 169 146 149 149
308 306 297 280 265 256 264 260 263 314 312 320 276 246 256 260 254 83 299 297 325 215 268 289 304 288 275 238 192 190 190 205 193 184 185 180 196 187 205 223 217 200 205 181 198 189 178 186 197 177 184 182 205 206 186 188 190 203 203 214 219 191 189 198 206 203 215 233 221 257 206 225 239 248 187 240 168 161 171 168 159 165 158 159 152 149 149 157
305 293 274 267 251 252 255 236 234 232 250 269 256 257 257 247 261 278 267 265 298 282 283 305 282 259 225 249 202 193 202 183 205 184 185 185 191 190 196 205 208 207 199 180 185 186 208 198 161 168 179 185 211 212 202 185 196 203 186 198 214 214 171 209 191 220 213 216 220 216 259 157 214 348 50 301 164 146 148 169 149 162 150 152 150 152 159 161
295 278 255 251 244 248 232 227 207 198 258 257 262 253 245 266 296 105 253 81 258 305 304 301 255 214 205 215 196 192 197 207 200 189 185 193 189 193 196 201 200 204 190 186 170 194 192 188 155 173 203 184 211 205 210 185 200 184 187 200 211 212 211 179 188 225 63 296 225 184 227 231 205 174 52 360 127 144 163 171 162 147 156 146 151 153 156 151
320 304 253 249 236 226 229 200 196 212 197 263 272 264 270 279 269 284 236 188 256 292 305 323 223 195 189 194 189 189 186 213 184 188 178 188 191 200 194 205 206 204 208 185 178 207 175 174 177 180 203 194 204 208 210 185 216 174 204 197 209 222 238 190 205 178 240 223 219 209 214 210 235 209 133 94 243 154 189 151 154 146 151 148 152 156 155 144
306 290 277 260 239 203 186 183 185 216 219 235 250 253 289 288 204 235 243 241 252 210 285 286 312 244 193 194 181 183 181 209 176 192 181 186 186 194 194 207 197 201 209 194 197 167 173 180 181 185 194 187 200 207 219 188 203 209 197 184 213 175 222 200 204 200 195 217 217 220 225 217 219 208 152 149 166 160 123 136 152 148 151 141 149 150 154 150
293 290 307 260 189 166 175 160 222 250 255 239 252 270 230 239 274 232 228 226 266 293 269 263 301 275 285 204 186 183 169 203 170 190 181 178 197 185 199 205 192 205 202 181 198 159 186 188 160 180 198 173 193 202 207 190 195 220 188 204 216 235 211 206 193 221 195 210 226 219 222 217 214 217 159 178 178 180 146 142 147 154 153 153 152 147 156 155
288 296 278 21 123 138 140 189 217 209 228 247 258 255 279 284 277 141 286 222 264 244 261 293 245 286 277 258 211 178 173 193 180 189 203 163 202 165 201 205 190 194 200 185 201 171 179 187 171 173 183 164 203 192 204 195 180 203 202 194 193 235 189 239 188 218 190 214 201 236 222 210 228 246 237 190 185 187 168 156 157 162 156 150 150 146 154 153
309 290 275 169 151 146 151 183 225 224 239 251 260 269 277 269 287 274 251 227 269 245 275 277 281 264 279 291 284 191 173 195 188 195 194 167 207 156 202 194 195 192 195 185 197 169 200 159 166 161 186 185 201 194 209 197 190 200 206 200 198 198 197 198 217 198 210 196 204 207 246 221 194 179 222 229 175 187 192 181 159 158 150 153 153 151 159 159
311 297 303 168 177 195 227 254 247 242 256 264 267 271 284 301 295 298 297 269 247 267 231 272 256 267 268 255 260 189 185 189 187 197 189 171 184 177 180 193 201 190 190 183 201 166 229 139 153 181 198 188 197 185 220 203 191 203 204 215 199 196 228 197 214 197 214 205 221 214 238 220 117 169 236 264 150 183 192 201 157 149 145 145 152 151 154 147
310 317 126 186 180 208 241 269 267 264 259 269 285 279 292 289 287 290 291 289 298 269 256 238 263 283 250 251 259 238 190 180 186 194 168 180 173 188 170 197 198 183 192 189 194 174 129 160 168 188 197 185 191 192 205 223 196 202 210 225 201 202 217 209 209 205 213 207 200 196 217 196 354 14 344 83 95 34 190 196 154 142 143 137 136 140 137 112
312 302 262 169 177 224 259 268 285 288 292 293 297 292 297 298 292 289 277 283 269 285 306 288 286 239 266 252 260 234 183 185 190 196 175 182 170 191 175 200 196 185 191 152 202 153 196 174 180 178 179 171 188 187 196 214 212 209 204 209 224 215 188 207 204 217 219 219 225 194 209 156 161 40 338 141 142 187 188 241 158 132 134 152 148 140 127 127
296 268 254 244 188 217 238 256 282 294 296 304 309 304 302 298 285 282 297 285 270 258 252 260 245 279 261 251 264 242 200 203 166 205 192 169 166 187 172 197 182 179 203 158 198 139 224 164 181 182 184 178 187 189 187 191 201 196 213 193 217 235 192 179 211 202 227 208 233 247 155 71 80 28 55 213 164 132 60 90 103 134 147 147 143 133 134 136
317 306 91 243 214 221 251 263 274 265 279 296 301 291 299 294 302 306 268 272 256 245 236 263 288 271 269 271 279 243 189 180 162 200 182 164 174 178 174 184 179 185 192 154 185 156 192 175 201 200 195 194 201 190 179 187 188 207 198 194 202 232 212 198 205 222 211 194 226 233 192 168 132 106 69 320 297 169 137 98 111 129 140 142 136 129 131 142
287 276 357 310 294 225 248 240 243 234 258 327 288 0 308 290 293 296 211 248 202 236 246 248 268 282 260 267 236 174 190 151 174 204 154 169 188 164 170 178 183 180 149 154 198 176 201 188 199 205 201 193 203 186 172 190 195 207 205 192 204 218 221 192 193 220 233 202 207 226 142 132 130 120 163 223 254 81 72 60 93 112 131 141 145 124 135 142
307 47 315 261 296 287 296 256 228 269 268 271 269 326 272 295 293 281 253 232 282 267 272 300 248 245 245 269 164 198 176 149 188 164 162 169 179 151 167 173 184 123 142 168 178 197 181 229 256 248 222 190 191 192 175 185 200 200 209 193 204 209 224 215 162 213 225 248 237 184 159 164 150 189 167 183 102 91 97 108 58 56 111 145 149 148 162 161
298 317 284 344 298 264 225 262 280 273 276 240 265 230 273 277 283 258 280 310 206 215 203 273 248 235 227 219 170 196 148 159 180 179 169 169 159 158 168 175 168 141 168 172 168 175 207 214 236 222 209 207 202 187 167 190 196 197 204 200 201 206 211 225 213 198 215 229 260 284 204 223 178 182 163 170 113 126 125 127 130 143 162 143 143 151 158 165
351 337 316 319 267 277 281 263 230 239 250 273 236 233 220 280 275 292 236 236 206 192 200 247 250 214 203 201 198 178 159 196 165 166 162 169 142 165 174 188 150 176 179 180 167 152 250 219 216 181 222 222 314 119 179 194 197 208 199 207 202 203 204 214 229 213 203 237 233 236 287 306 225 133 153 121 117 128 140 140 174 159 136 137 142 148 150 153
314 286 302 311 312 294 300 292 263 180 215 199 238 268 235 245 269 265 293 229 274 297 191 241 234 204 254 346 18 22 13 350 324 166 178 183 165 168 171 185 160 171 177 167 186 157 216 274 199 190 211 191 261 242 303 246 188 201 199 208 204 201 205 201 210 196 203 219 232 217 215 215 15 93 111 129 127 141 151 156 157 156 151 158 156 159 163 156
309 318 319 308 295 293 298 294 320 331 178 190 191 238 219 263 251 262 255 216 227 262 308 293 313 291 236 240 28 16 339 323 319 323 217 167 170 169 189 189 168 171 173 157 175 197 190 252 202 177 208 217 223 251 289 212 184 196 203 196 204 205 217 193 198 201 199 213 223 211 226 118 122 119 135 142 148 142 148 152 155 157 152 145 166 180 173 166